Weather in Pavlovka

Russia / Republic of Bashkortostan     55°25′16″N   56°33′38″E
temp.,
°C
wind,
m/s
gust,
m/s
humid.,
%
clouds,
%
prec.,
mm/h
press.,
hPa
HPBL,
m
2 march, tue
tue223:00−18wsw129987 0.1 101821
02:00−19sw2310099 0.1 101774
05:00−20ssw38100100 0.1 1016245
08:00−20s51299100 0.1 1013338
11:00−17s71495100 0.1 1010373
14:00−14s71493100 0.4 1006500
17:00−12ssw71493100 1.3 1004714
20:00−10ssw71592100 0.6 1002673
3 march, wed
wed323:00−9s71593100 1.7 1001676
02:00−7s61394100 1.6 999668
05:00−5ssw51096100 3.4 998534
08:00−5sw41096100 0.8 997417
11:00−3sw4895100 1.1 998517
14:00−2wsw4794100 0.5 999629
17:00−2wsw3694100 0.9 999481
20:00−4sw269799 0.3 999231
4 march, thu
thu423:00−5wsw499699 0.8 1000480
02:00−6wsw3896100 0.4 1000405
05:00−9wnw4995100 0.9 1001376
08:00−15w2599100 0.1 1003130
11:00−11sw3695100 0.2 1004328
14:00−8ssw4893100 0.2 1003494
17:00−6sw51094100 0.8 1003744
20:00−7ssw51294100 0.5 1002661
5 march, fri
fri523:00−7ssw71494100 2.0 1000819
02:00−5ssw71495100 2.5 997895
05:00−2sw81596100 6.5 9951195
08:00−2sw81595100 2.6 9941210
11:00−1wsw81496100 5.5 9961064
14:00−3w61187100 1.8 999929
17:00−5wnw4791100 1.8 1003638
20:00−6w3894100 0.1 1006552
6 march, sat
sat623:00−9w3995100 0.4 1010368
02:00−12w3797100 0.1 1012230
05:00−17sw2299100 0.3 101529
08:00−19ssw22100100 0.1 101639
11:00−15s2397100 0.1 1015225
14:00−11sse2494100 0.0 1012337
17:00−9ene2495100 0.7 1007325
20:000sw81498100 3.8 9951062